EW3359 Weather Reports


Display with metric or nautical units.
time (UTC)temp
F
wind
direction
speed
MPH
gust
MPH
rain 1hr
in
rain 24hr
in
rain mn
in
humidity
%
barometer
mb
20260903121547 82 149 2.0 6.0 0.00 0.00 0.00 42 1018.3
20260903120047 80 259 0.0 6.0 0.00 0.00 0.00 43 1018.5
20260903114547 81 254 0.0 5.0 0.00 0.00 0.00 44 1018.5
20260903113043 81 169 1.0 7.0 0.00 0.00 0.00 43 1018.8
20260903111543 80 196 0.0 5.0 0.00 0.00 0.00 43 1018.9
20260903110047 80 182 0.0 5.0 0.00 0.00 0.00 43 1018.9
20260903104543 79 232 0.0 3.0 0.00 0.00 0.00 44 1019.2
20260903103038 77 213 0.0 4.0 0.00 0.00 0.00 46 1019.4
20260903101538 77 167 0.0 5.0 0.00 0.00 0.00 48 1019.4
20260903100028 76 186 0.0 5.0 0.00 0.00 0.00 48 1019.9
20260903094524 75 187 0.0 5.0 0.00 0.00 0.00 46 1020.0
20260903093020 74 190 0.0 3.0 0.00 0.00 0.00 51 1020.5
20260903091517 73 192 0.0 6.0 0.00 0.00 0.00 51 1020.6
20260903090013 72 168 1.0 3.0 0.00 0.00 0.00 52 1020.7
20260903084509 72 147 1.0 6.0 0.00 0.00 0.00 55 1020.8
20260903083004 70 189 0.0 2.0 0.00 0.00 0.00 57 1020.8
20260903081602 69 189 0.0 4.0 0.00 0.00 0.00 58 1021.0
20260903080057 68 189 0.0 4.0 0.00 0.00 0.00 62 1021.0
20260903074552 68 190 0.0 1.0 0.00 0.00 0.00 62 1021.2
20260903073047 67 216 0.0 0.0 0.00 0.00 0.00 65 1021.5
20260903071545 66 302 0.0 0.0 0.00 0.00 0.00 67 1021.5
20260903070040 65 315 0.0 0.0 0.00 0.00 0.00 69 1021.5
20260903064539 63 316 0.0 0.0 0.00 0.00 0.00 70 1021.4
20260903063103 62 316 0.0 0.0 0.00 0.00 0.00 71 1021.5
20260903061528 61 316 0.0 0.0 0.00 0.00 0.00 73 1021.6
20260903060024 61 316 0.0 0.0 0.00 0.00 0.00 76 1021.6
20260903054519 60 316 0.0 1.0 0.00 0.00 0.00 74 1021.4
20260903053015 59 316 0.0 0.0 0.00 0.00 0.00 73 1021.4
20260903051512 60 316 0.0 0.0 0.00 0.00 0.00 71 1021.0
20260903050010 59 316 0.0 0.0 0.00 0.00 0.00 74 1021.0
20260903044506 60 316 0.0 0.0 0.00 0.00 0.00 70 1020.8
20260903043004 60 316 0.0 0.0 0.00 0.00 0.00 71 1020.4
20260903041502 61 316 0.0 0.0 0.00 0.00 0.00 68 1020.3
20260903040104 62 315 0.0 2.0 0.00 0.00 0.00 68 1020.2
20260903034600 62 315 0.0 1.0 0.00 0.00 0.00 68 1020.1
20260903033058 61 315 0.0 0.0 0.00 0.00 0.00 69 1020.1
20260903031557 62 315 0.0 0.0 0.00 0.00 0.00 67 1020.0
20260903030056 63 315 0.0 0.0 0.00 0.00 0.00 66 1020.0
20260903024555 63 315 0.0 0.0 0.00 0.00 0.00 66 1020.0
20260903023054 63 314 0.0 0.0 0.00 0.00 0.00 65 1020.0
20260903021554 63 314 0.0 3.0 0.00 0.00 0.00 66 1020.0
20260903020054 62 312 0.0 0.0 0.00 0.00 0.00 68 1020.0
20260903014552 63 312 0.0 0.0 0.00 0.00 0.00 66 1020.0
20260903013050 64 312 0.0 0.0 0.00 0.00 0.00 65 1020.0
20260903011601 64 312 0.0 0.0 0.00 0.00 0.00 65 1020.0
20260903010050 64 312 0.0 0.0 0.00 0.00 0.00 65 1020.0
20260903004546 64 312 0.0 0.0 0.00 0.00 0.00 65 1019.9
20260903003044 64 312 0.0 0.0 0.00 0.00 0.00 64 1019.9
20260903001543 64 312 0.0 0.0 0.00 0.00 0.00 64 1019.9
20260903000042 65 312 0.0 0.0 0.00 0.00 0.00 64 1019.8
20260902234542 65 312 0.0 0.0 0.00 0.00 0.00 64 1019.7
20260902233048 65 312 0.0 0.0 0.00 0.00 0.00 63 1019.8
20260902231549 66 312 0.0 0.0 0.00 0.00 0.00 62 1019.5
20260902230035 66 312 0.0 0.0 0.00 0.00 0.00 62 1019.4
20260902224536 66 312 0.0 0.0 0.00 0.00 0.00 61 1019.3
20260902223030 67 312 0.0 0.0 0.00 0.00 0.00 60 1019.3
20260902221528 68 312 0.0 0.0 0.00 0.00 0.00 58 1019.2
20260902220026 67 312 0.0 0.0 0.00 0.00 0.00 59 1019.1
20260902214525 68 312 0.0 0.0 0.00 0.00 0.00 57 1018.8
20260902213024 69 311 0.0 0.0 0.00 0.00 0.00 56 1018.8
20260902211530 70 311 0.0 0.0 0.00 0.00 0.00 54 1018.6
20260902210025 70 320 0.0 0.0 0.00 0.00 0.00 55 1018.4
20260902204523 70 320 0.0 0.0 0.00 0.00 0.00 55 1018.4
20260902203023 71 319 0.0 0.0 0.00 0.00 0.00 53 1018.2
20260902201533 71 319 0.0 2.0 0.00 0.00 0.00 54 1018.1
20260902200023 72 315 0.0 1.0 0.00 0.00 0.00 53 1018.1
20260902194522 72 301 0.0 4.0 0.00 0.00 0.00 52 1017.9
20260902193021 72 323 0.0 3.0 0.00 0.00 0.00 52 1017.8
20260902191532 72 340 0.0 0.0 0.00 0.00 0.00 52 1017.6
20260902190020 72 256 0.0 0.0 0.00 0.00 0.00 52 1017.5
20260902184520 73 253 1.0 3.0 0.00 0.00 0.00 50 1017.3
20260902183023 74 250 0.0 2.0 0.00 0.00 0.00 50 1017.2
20260902181519 74 187 0.0 2.0 0.00 0.00 0.00 49 1017.0
20260902180019 75 186 0.0 3.0 0.00 0.00 0.00 48 1016.8
20260902174518 75 256 1.0 6.0 0.00 0.00 0.00 47 1016.4
20260902173018 76 191 1.0 6.0 0.00 0.00 0.00 46 1016.1
20260902171517 78 167 0.0 7.0 0.00 0.00 0.00 43 1016.0
20260902170020 79 196 1.0 9.0 0.00 0.00 0.00 43 1016.0
20260902164518 79 182 0.0 6.0 0.00 0.00 0.00 42 1015.8
20260902163016 79 217 2.0 7.0 0.00 0.00 0.00 41 1015.8
20260902161520 79 261 1.0 10.0 0.00 0.00 0.00 40 1015.6
20260902160015 81 215 3.0 8.0 0.00 0.00 0.00 38 1015.5
20260902154525 82 179 1.0 7.0 0.00 0.00 0.00 37 1015.4
20260902153014 82 219 1.0 13.0 0.00 0.00 0.00 36 1015.2
20260902151513 83 217 1.0 13.0 0.00 0.00 0.00 36 1015.2
20260902150013 82 165 1.0 12.0 0.00 0.00 0.00 36 1015.3
20260902144526 84 273 1.0 11.0 0.00 0.00 0.00 35 1015.5
20260902143016 84 213 3.0 8.0 0.00 0.00 0.00 34 1015.6
20260902141515 83 171 2.0 9.0 0.00 0.00 0.00 38 1015.6
20260902140015 83 207 4.0 9.0 0.00 0.00 0.00 37 1015.6
20260902134509 82 170 5.0 10.0 0.00 0.00 0.00 37 1015.7
20260902133003 82 200 3.0 11.0 0.00 0.00 0.00 38 1015.8
20260902131600 81 181 3.0 10.0 0.00 0.00 0.00 38 1016.0
20260902130104 81 209 1.0 10.0 0.00 0.00 0.00 38 1016.1
20260902124602 81 256 0.0 6.0 0.00 0.00 0.00 39 1016.2
20260902123101 81 232 0.0 7.0 0.00 0.00 0.00 40 1016.3